Погода в Кочки

Погода в Кочки : погода сейчас, прогноз погоды и архив. Всё, что Вы хотите узнать о погоде в Кочки!

Хотите узнать прогноз погоды в Кочки? Тогда Вам сюда: Погода в Кочки

Поиск расширенной информации на нашем сайте:

Другие новости

Новости СМИ2

Главная страница сайта

Новости сайта

03.07.2017

Напоминаем, что на нашем специализированном сайте Метеоцентр.Азия вы можете получить высокодетализированные автоматические прогнозы погоды по пунктам России, СНГ и мира в авиационном формате (включающие направление и скорость ветра, видимость, явления погоды, количество и форму облачности, нижнюю и верхнюю границу облачности).

Рекомендуем: Минтруда план по созданию безбарьерной среды.

Погода в Кочки - сегодня

Время (UTC), дата Ветер
(°,м/с) 
Видим.   Явления Облачность Т
(°С)
Тd
(°С)
f(%) Тe
(°С)
Pmin
(гПа)
dP
(гПа)
Po
(мм)
O2
(г/м3)
Тmin Tmax R s Состояние
почвы
03 23.07.17 200 (Ю) 20000 м    8/3 600 м кучево-дожд., средняя, верхняя 
[Cb calv|Ac trans|Ci fib]
+16.3 +14.7 90 +26  1011.1  0.3  744  280  +13.3         
06 23.07.17 050 (СВ) 20000 м    9/6 600 м кучево-дожд., средняя, верхняя 
[Cb calv|Ac trans|Ci fib]
+24.5 +13.9 52 +32  1009.8  -0.7  744  272           
09 23.07.17 320 (СЗ) 20000 м  слаб. ливневой дождь  9/8 600 м кучево-дожд., средняя 
[Cb calv|Ac As]
+21.3 +16.1 72 +32  1009.7  -0.3  743  274           
12 23.07.17 260 (З) 20000 м  {ливн. осадки}  8/3 600 м кучево-дожд., средняя, верхняя 
[Cb calv|Ac trans|Ci fib]
+24.8 +14.6 53 +33  1009.4  -0.1  743  272    +26.5  0.0     
15 23.07.17 160 (Ю) 20000 м    6/3 1000 м верхняя 
[Sc diur, vesp|Ci sp]
+19.4 +16 81 +32  1010.2  0.4  744  276           
18 23.07.17 110 (В) 20000 м    4/0 верхняя 
[Ci sp]
+15.3 +14.1 93 +24  1009.9  -0.5  743  281           
21 23.07.17 070 (В) 2000 м  дымка  4/0 верхняя 
[Ci sp]
+13.4 +12.5 94 +20  1009.5  -0.6  743  283           
00 24.07.17 070 (В) 4000 м  дымка  3/0 верхняя 
[Ci sp]
+13.6 +12.8 95 +20  1009.7  0.3  743  283  +12.4        сухая 
03 24.07.17 150 (ЮВ) 20000 м    8/0 средняя, верхняя 
[Ac As|Ci fib]
+23.5 +17.1 67 +36  1008.1  -1  742  272           
06 24.07.17 170 (Ю) 20000 м    9/8 600 м кучево-дожд., средняя 
[Cb calv|Ac As]
+24.5 +15.8 58 +35  1007.1  -0.9  742  271           
09 24.07.17 190 (Ю) 20000 м  слаб. ливневой дождь  9/8 600 м кучево-дожд., средняя 
[Cb calv|Ac As]
+24.2 +16 60 +35  1006.8  -0.3  741  271           
12 24.07.17 150 (ЮВ) 20000 м  {ливн. осадки}  9/8 600 м кучево-дожд., средняя, верхняя 
[Cb calv|Ac As|Ci sp]
+23.6 +16.7 65 +36  1004.1  -2.6  739  271    +25.6  0.0     
15 24.07.17 140 (ЮВ) 20000 м  зарница  9/8 600 м кучево-дожд., средняя, верхняя 
[Cb cap|Ac As|Ci sp]
+22.2 +16.4 70 +34  1001.4  -2.8  737  271           
18 24.07.17 160 (Ю) 6-11{13}  20000 м  зарница  8/6 600 м кучево-дожд., средняя 
[Cb cap|Ac trans]
+21.7 +14.9 65 +31  999  -2.4  736  271           
21 24.07.17 270 (З) 2{11}  20000 м    8/5 600 м кучево-дожд., средняя 
[Cb calv|Ac As]
+17.8 +14 78 +26  999.5  0.3  736  275           
00 25.07.17 220 (ЮЗ) 20000 м    4/0 верхняя 
[Ci sp]
+15.8 +14.2 90 +24  1000.5  0.8  736  278  +14.7        сухая 
03 25.07.17 230 (ЮЗ) 20000 м    10/10 600 м кучево-дожд. 
[Cb calv]
+17.8 +14.4 80 +26  1001.2  0.8  737  276           
06 25.07.17 240 (ЮЗ) 3{10}  20000 м    10/8 600 м кучево-дожд., средняя 
[Cb calv|Ac As]
+19.5 +14.4 72 +28  1001.9  0.8  738  274           
09 25.07.17 290 (З) 20000 м    10/8 600 м кучево-дожд., средняя 
[Cb calv|Ac As]
+20.8 +15 69 +30  1002.9  1.1  738  273           
12 25.07.17 270 (З) 20000 м    9/6 600 м кучево-дожд., средняя, верхняя 
[Cb calv|Ac trans|Ci fib]
+21.4 +15.1 67 +31  1003.4  0.5  739  273    +22.2       
15 25.07.17 250 (З) 20000 м    8/6 600 м средняя 
[Sc|Ac trans]
+19.9 +15.3 75 +31  1003.8  0.2  739  274           
18 25.07.17 220 (ЮЗ) 20000 м    10/8 600 м средняя 
[Sc|Ac As]
+17.5 +15.6 89 +28  1004.3  0.4  739  277           
21 25.07.17 220 (ЮЗ) 4000 м  дымка  1/0 средняя 
[Ac trans]
+14.2 +13.2 94 +21  1005  0.5  740  281           
00 26.07.17 220 (ЮЗ) 4000 м  в посл. час туман  3/0 средняя 
[Ac trans]
+14.3 +13.5 95 +22  1005.4  0.4  740  281  +14.2        сухая 
03 26.07.17 230 (ЮЗ) 20000 м    ясно 
+22.5 +16.3 68 +34  1005.2  0.3  740  272           
Время (UTC), дата Ветер
(°,м/с) 
Видим.   Явления Облачность Т
(°С)
Тd
(°С)
f(%) Тe
(°С)
Pmin
(гПа)
dP
(гПа)
Po
(мм)
O2
(г/м3)
Тmin Tmax R s Состояние
почвы

Для получения пояснительной информации подведите курсор к названию столбца.

ПОГОДА в Кочки - архив

Всё, что Вы хотите узнать о погоде в Кочки - удобно и подробно!

Выберите нужную дату (начиная с 1 января 2015* года) и нажмите кнопку "Найти".
Будут отображены архивные сводки погоды по пункту Кочки, начиная с указанной даты.


Отображать данные в формате CSV (для использования в таблицах Excel)


Внимание! Наш архив погоды предназначен исключительно для личного некоммерческого использования в познавательных целях. Если Вам необходимы официальные справки о состоянии погоды (для производственных, юридических, коммерческих и т.п. целей), обращайтесь в органы Росгидромета.

*Примечание: данная дата относится к архиву по метеостанциям СССР (Россия, СНГ, Балтия).
Архив по метеостанциям Зарубежной Европы и Азии (кроме Китая) хранится 10 дней, по другим регионам земного шара (Китай, Африка, Америка, Австралия, Океания) - 1 день.

Кочки - район местоположения метеостанции


Название, широта, долгота, высота метеостанции:
Кочки 54.3°ш. 80.5°д. 164 м над ур. моря [Российская Федерация]

Дополнительная информация

В oтличие oт бoльшинства пoгoдных сайтoв мы публикуем пoдрoбную метеoинфoрмацию в детальнoм прoфессиoнальнoм фoрмате.

Характеристики температуры и влажнoсти вoздуха измеряются на высoте 2 м в тени вдали oт зданий и деревьев.
Скoрoсть ветра измеряется на высoте 10 м (на урoвне рoста челoвека скoрoсть ветра ниже в 1.5-2 раза). Если метеoстанция нахoдится в гoрoде или в лесу, тo скoрoсть ветра занижена на 2-4 м/с пo сравнению с oткрытым местoм. Скoрoсть ветра над акватoриями крупных рек и oзёр, а также на вершинах хoлмoв на 2-5 м/с выше, чем в oбычных услoвиях.
Атмoсфернoе давление в разных тoчках местнoсти мoжет значительнo oтличаться oт давления на метеoстанции, в зависимoсти oт услoвий рельефа (при пoдъёме на 10 м давление пoнижается примернo на 1 мм рт.ст.).